When you browse on this site, cookies collect data to enhance your experience and personalize the content and advertising you see.
Visit our Privacy Policy to learn more. By continuing to use the site, you agree to this use of cookies and data.
EN

Hourly Weather New Delhi

Today, 14 August, Friday

Time Temperature Precipitation Wind Pressure Humidity
00:00 +30°C° 0 mm 3 mps 728 mmHg 80%
01:00 +29°C° 0 mm 3 mps 728 mmHg 80%
02:00 +29°C° 0 mm 3 mps 728 mmHg 81%
03:00 +29°C° 0 mm 3 mps 728 mmHg 81%
04:00 +29°C° 0 mm 2 mps 728 mmHg 81%
05:00 +29°C° 0 mm 2 mps 727 mmHg 82%
06:00 +29°C° 0 mm 2 mps 728 mmHg 80%
07:00 +30°C° 0 mm 2 mps 728 mmHg 77%
08:00 +31°C° 0 mm 3 mps 728 mmHg 75%
09:00 +33°C° 0.2 mm 3 mps 728 mmHg 70%
10:00 +35°C° 0.2 mm 4 mps 728 mmHg 64%
11:00 +36°C° 0 mm 5 mps 729 mmHg 59%
12:00 +36°C° 0.4 mm 4 mps 728 mmHg 57%
13:00 +37°C° 0.4 mm 4 mps 727 mmHg 56%
14:00 +37°C° 0.4 mm 4 mps 727 mmHg 55%
15:00 +37°C° 1 mm 4 mps 726 mmHg 56%
16:00 +37°C° 1 mm 4 mps 726 mmHg 57%
17:00 +36°C° 0 mm 2 mps 726 mmHg 59%
18:00 +35°C° 0.5 mm 2 mps 726 mmHg 61%
19:00 +35°C° 0.5 mm 2 mps 726 mmHg 63%
20:00 +34°C° 0.5 mm 2 mps 727 mmHg 65%
21:00 +34°C° 3.8 mm 2 mps 727 mmHg 67%
22:00 +34°C° 3.8 mm 3 mps 727 mmHg 69%
23:00 +33°C° 3.8 mm 3 mps 727 mmHg 72%

Tomorrow, 15 August, Saturday

Time Temperature Precipitation Wind Pressure Humidity
00:00 +33°C° 0.6 mm 3 mps 727 mmHg 72%
01:00 +33°C° 0.6 mm 3 mps 726 mmHg 73%
02:00 +32°C° 0.6 mm 2 mps 726 mmHg 74%
03:00 +31°C° 1 mm 3 mps 726 mmHg 75%
04:00 +31°C° 1 mm 3 mps 726 mmHg 76%
05:00 +31°C° 1 mm 3 mps 726 mmHg 77%
06:00 +31°C° 0.2 mm 3 mps 727 mmHg 76%
07:00 +33°C° 0.2 mm 3 mps 727 mmHg 75%
08:00 +33°C° 0.2 mm 3 mps 727 mmHg 73%
09:00 +34°C° 0.1 mm 3 mps 728 mmHg 67%
10:00 +36°C° 0.1 mm 3 mps 728 mmHg 60%
11:00 +37°C° 0.1 mm 3 mps 728 mmHg 54%
12:00 +38°C° 0 mm 3 mps 727 mmHg 53%
13:00 +38°C° 0 mm 4 mps 727 mmHg 52%
14:00 +40°C° 0 mm 4 mps 726 mmHg 50%
15:00 +38°C° 0 mm 3 mps 726 mmHg 52%
16:00 +38°C° 0 mm 3 mps 726 mmHg 53%
17:00 +38°C° 0 mm 3 mps 725 mmHg 55%
18:00 +37°C° 0.1 mm 2 mps 726 mmHg 56%
19:00 +37°C° 0.1 mm 2 mps 726 mmHg 58%
20:00 +36°C° 0.1 mm 2 mps 727 mmHg 60%
21:00 +36°C° 1 mm 2 mps 727 mmHg 61%
22:00 +35°C° 1 mm 2 mps 727 mmHg 63%
23:00 +35°C° 1 mm 3 mps 728 mmHg 64%

Day after tomorrow, 16 August, Sunday

Time Temperature Precipitation Wind Pressure Humidity
00:00 +34°C° 3 mm 3 mps 727 mmHg 67%
01:00 +34°C° 3 mm 3 mps 727 mmHg 71%
02:00 +33°C° 3 mm 3 mps 727 mmHg 74%
03:00 +33°C° 2.1 mm 3 mps 727 mmHg 76%
04:00 +31°C° 2.1 mm 3 mps 727 mmHg 78%
05:00 +31°C° 2.1 mm 3 mps 727 mmHg 80%
06:00 +31°C° 0.2 mm 3 mps 728 mmHg 78%
07:00 +33°C° 0.2 mm 3 mps 728 mmHg 76%
08:00 +33°C° 0.2 mm 3 mps 728 mmHg 74%
09:00 +35°C° 1.1 mm 3 mps 728 mmHg 67%
10:00 +37°C° 1.1 mm 3 mps 728 mmHg 60%
11:00 +38°C° 1.1 mm 3 mps 728 mmHg 53%
12:00 +39°C° 0.1 mm 3 mps 728 mmHg 51%
13:00 +39°C° 0.1 mm 3 mps 727 mmHg 49%
14:00 +40°C° 0.1 mm 3 mps 727 mmHg 48%
15:00 +39°C° 0.1 mm 3 mps 727 mmHg 50%
16:00 +38°C° 0.1 mm 3 mps 726 mmHg 53%
17:00 +38°C° 0.1 mm 2 mps 726 mmHg 55%
18:00 +37°C° 0 mm 2 mps 726 mmHg 57%
19:00 +36°C° 0 mm 2 mps 727 mmHg 59%
20:00 +36°C° 0 mm 3 mps 727 mmHg 62%
21:00 +35°C° 0.3 mm 3 mps 727 mmHg 64%
22:00 +35°C° 0.3 mm 3 mps 728 mmHg 65%
23:00 +34°C° 0.3 mm 4 mps 728 mmHg 67%

17 August, Monday

Time Temperature Precipitation Wind Pressure Humidity
00:00 +34°C° 1.1 mm 3 mps 728 mmHg 69%
01:00 +33°C° 1.1 mm 3 mps 728 mmHg 71%
02:00 +33°C° 1.1 mm 3 mps 728 mmHg 72%
03:00 +33°C° 2.1 mm 3 mps 728 mmHg 74%
04:00 +31°C° 2.1 mm 3 mps 728 mmHg 76%
05:00 +32°C° 2.1 mm 4 mps 728 mmHg 78%
06:00 +33°C° 4.3 mm 3 mps 728 mmHg 74%
07:00 +34°C° 4.3 mm 3 mps 728 mmHg 69%
08:00 +35°C° 4.3 mm 3 mps 728 mmHg 65%
09:00 +36°C° 1.6 mm 3 mps 728 mmHg 60%
10:00 +37°C° 1.6 mm 4 mps 728 mmHg 56%
11:00 +38°C° 1.6 mm 4 mps 729 mmHg 52%
12:00 +38°C° 0.2 mm 4 mps 728 mmHg 50%
13:00 +39°C° 0.2 mm 3 mps 727 mmHg 48%
14:00 +40°C° 0.2 mm 3 mps 727 mmHg 46%
15:00 +39°C° 0 mm 3 mps 727 mmHg 48%
16:00 +39°C° 0 mm 2 mps 726 mmHg 50%
17:00 +38°C° 0 mm 2 mps 726 mmHg 52%
18:00 +37°C° 0.2 mm 2 mps 726 mmHg 55%
19:00 +36°C° 0.2 mm 2 mps 727 mmHg 59%
20:00 +35°C° 0.2 mm 2 mps 727 mmHg 62%
21:00 +35°C° 1.9 mm 2 mps 727 mmHg 64%
22:00 +35°C° 1.9 mm 2 mps 728 mmHg 67%
23:00 +34°C° 1.9 mm 2 mps 728 mmHg 69%

18 August, Tuesday

Time Temperature Precipitation Wind Pressure Humidity
00:00 +34°C° 2.1 mm 2 mps 728 mmHg 71%
01:00 +32°C° 2.1 mm 2 mps 727 mmHg 73%
02:00 +32°C° 2.1 mm 2 mps 727 mmHg 75%
03:00 +31°C° 5.6 mm 2 mps 727 mmHg 77%
04:00 +31°C° 5.6 mm 2 mps 727 mmHg 78%
05:00 +31°C° 5.6 mm 3 mps 728 mmHg 80%
06:00 +31°C° 3.9 mm 2 mps 728 mmHg 78%
07:00 +31°C° 3.9 mm 2 mps 728 mmHg 76%
08:00 +32°C° 3.9 mm 2 mps 729 mmHg 74%
09:00 +35°C° 0.8 mm 2 mps 729 mmHg 67%
10:00 +36°C° 0.8 mm 2 mps 729 mmHg 60%
11:00 +38°C° 0.8 mm 2 mps 729 mmHg 53%
12:00 +38°C° 0.2 mm 2 mps 728 mmHg 51%
13:00 +39°C° 0.2 mm 2 mps 727 mmHg 50%
14:00 +39°C° 0.2 mm 3 mps 727 mmHg 48%
15:00 +39°C° 0.1 mm 2 mps 726 mmHg 50%
16:00 +38°C° 0.1 mm 2 mps 726 mmHg 51%
17:00 +38°C° 0.1 mm 2 mps 726 mmHg 53%
18:00 +37°C° 0 mm 2 mps 726 mmHg 55%
19:00 +37°C° 0 mm 2 mps 727 mmHg 58%
20:00 +36°C° 0 mm 2 mps 727 mmHg 60%
21:00 +36°C° 0 mm 2 mps 727 mmHg 62%
22:00 +35°C° 0 mm 2 mps 727 mmHg 63%
23:00 +35°C° 0 mm 3 mps 728 mmHg 65%

19 August, Wednesday

Time Temperature Precipitation Wind Pressure Humidity
00:00 +34°C° 1.3 mm 2 mps 727 mmHg 67%
01:00 +34°C° 1.3 mm 2 mps 727 mmHg 69%
02:00 +33°C° 1.3 mm 1 mps 727 mmHg 71%
03:00 +32°C° 2.4 mm 2 mps 727 mmHg 72%
04:00 +32°C° 2.4 mm 2 mps 727 mmHg 73%
05:00 +32°C° 2.4 mm 2 mps 727 mmHg 74%
06:00 +34°C° 0.8 mm 2 mps 727 mmHg 71%
07:00 +34°C° 0.8 mm 2 mps 727 mmHg 68%
08:00 +35°C° 0.8 mm 2 mps 727 mmHg 65%
09:00 +36°C° 0.7 mm 2 mps 727 mmHg 60%
10:00 +37°C° 0.7 mm 3 mps 728 mmHg 55%
11:00 +38°C° 0.7 mm 3 mps 728 mmHg 50%
12:00 +38°C° 0.4 mm 3 mps 727 mmHg 52%
13:00 +37°C° 0.4 mm 3 mps 727 mmHg 54%
14:00 +37°C° 0.4 mm 3 mps 727 mmHg 56%
15:00 +36°C° 0 mm 4 mps 726 mmHg 59%
16:00 +36°C° 0.1 mm 4 mps 726 mmHg 61%
17:00 +35°C° 0.1 mm 5 mps 726 mmHg 64%
18:00 +34°C° 0 mm 5 mps 726 mmHg 66%
19:00 +34°C° 0 mm 4 mps 726 mmHg 68%
20:00 +33°C° 0 mm 4 mps 726 mmHg 71%
21:00 +33°C° 0 mm 4 mps 727 mmHg 71%
22:00 +33°C° 0 mm 4 mps 727 mmHg 72%
23:00 +33°C° 0 mm 3 mps 728 mmHg 72%
Show more